| time (UTC) | temp F | wind direction | speed knots | gust knots | rain 1hr in | rain 24hr in | rain mn in | humidity % | barometer mb |
| 20260505011459 | 72 | 244 | 0.9 | 1.7 | 0.00 | 0.00 | 0.00 | 55 | 1009.2 |
| 20260505010959 | 72 | 244 | 0.9 | 2.6 | 0.00 | 0.00 | 0.00 | 55 | 1009.2 |
| 20260505010459 | 72 | 244 | 0.9 | 2.6 | 0.00 | 0.00 | 0.00 | 55 | 1009.2 |
| 20260505010002 | 72 | 246 | 0.9 | 1.7 | 0.00 | 0.00 | 0.00 | 54 | 1009.2 |
| 20260505005502 | 73 | 246 | 0.9 | 1.7 | 0.00 | 0.00 | 0.00 | 54 | 1009.2 |
| 20260505005001 | 73 | 246 | 0.9 | 1.7 | 0.00 | 0.00 | 0.00 | 54 | 1009.1 |
| 20260505003959 | 73 | 246 | 0.9 | 2.6 | 0.00 | 0.00 | 0.00 | 53 | 1009.0 |
| 20260505003500 | 74 | 246 | 0.9 | 1.7 | 0.00 | 0.00 | 0.00 | 53 | 1009.1 |
| 20260505003000 | 74 | 246 | 0.9 | 2.6 | 0.00 | 0.00 | 0.00 | 53 | 1009.1 |
| 20260505001959 | 74 | 246 | 1.7 | 2.6 | 0.00 | 0.00 | 0.00 | 52 | 1009.1 |
| 20260505001000 | 75 | 222 | 1.7 | 3.5 | 0.00 | 0.00 | 0.00 | 51 | 1009.1 |
| 20260505000501 | 75 | 277 | 1.7 | 3.5 | 0.00 | 0.00 | 0.00 | 51 | 1009.2 |
| 20260505000002 | 75 | 214 | 2.6 | 6.1 | 0.00 | 0.00 | 0.00 | 50 | 1009.2 |
| 20260504235459 | 75 | 234 | 2.6 | 6.1 | 0.00 | 0.00 | 0.00 | 49 | 1009.3 |
| 20260504235000 | 75 | 202 | 2.6 | 5.2 | 0.00 | 0.00 | 0.00 | 50 | 1009.3 |
| 20260504234459 | 75 | 266 | 2.6 | 3.5 | 0.00 | 0.00 | 0.00 | 50 | 1009.3 |
| 20260504234001 | 75 | 202 | 2.6 | 4.3 | 0.00 | 0.00 | 0.00 | 50 | 1009.3 |
| 20260504233500 | 75 | 242 | 2.6 | 4.3 | 0.00 | 0.00 | 0.00 | 50 | 1009.4 |
| 20260504233000 | 76 | 225 | 2.6 | 4.3 | 0.00 | 0.00 | 0.00 | 50 | 1009.4 |
| 20260504232459 | 76 | 255 | 2.6 | 7.8 | 0.00 | 0.00 | 0.00 | 50 | 1009.3 |
| 20260504231459 | 75 | 277 | 2.6 | 3.5 | 0.00 | 0.00 | 0.00 | 50 | 1009.4 |
| 20260504230959 | 75 | 216 | 2.6 | 6.1 | 0.00 | 0.00 | 0.00 | 50 | 1009.5 |
| 20260504230005 | 76 | 229 | 1.7 | 6.1 | 0.00 | 0.00 | 0.00 | 51 | 1009.4 |
| 20260504225459 | 76 | 196 | 2.6 | 6.1 | 0.00 | 0.00 | 0.00 | 50 | 1009.4 |
| 20260504225000 | 76 | 239 | 2.6 | 4.3 | 0.00 | 0.00 | 0.00 | 50 | 1009.4 |
| 20260504224459 | 77 | 230 | 2.6 | 7.8 | 0.00 | 0.00 | 0.00 | 49 | 1009.3 |
| 20260504223959 | 77 | 251 | 2.6 | 4.3 | 0.00 | 0.00 | 0.00 | 49 | 1009.4 |
| 20260504223459 | 77 | 238 | 1.7 | 5.2 | 0.00 | 0.00 | 0.00 | 49 | 1009.3 |
| 20260504222959 | 77 | 234 | 1.7 | 5.2 | 0.00 | 0.00 | 0.00 | 49 | 1009.4 |
| 20260504222502 | 77 | 219 | 1.7 | 3.5 | 0.00 | 0.00 | 0.00 | 49 | 1009.4 |
| 20260504222000 | 77 | 269 | 1.7 | 5.2 | 0.00 | 0.00 | 0.00 | 50 | 1009.4 |
| 20260504221500 | 77 | 221 | 1.7 | 7.0 | 0.00 | 0.00 | 0.00 | 49 | 1009.5 |
| 20260504221000 | 77 | 298 | 2.6 | 7.0 | 0.00 | 0.00 | 0.00 | 48 | 1009.4 |
| 20260504220500 | 77 | 223 | 3.5 | 7.0 | 0.00 | 0.00 | 0.00 | 46 | 1009.4 |
| 20260504220003 | 77 | 280 | 2.6 | 6.1 | 0.00 | 0.00 | 0.00 | 45 | 1009.5 |
| 20260504215459 | 77 | 209 | 3.5 | 6.1 | 0.00 | 0.00 | 0.00 | 47 | 1009.4 |
| 20260504214959 | 77 | 228 | 3.5 | 8.7 | 0.00 | 0.00 | 0.00 | 48 | 1009.4 |
| 20260504214000 | 77 | 273 | 2.6 | 6.1 | 0.00 | 0.00 | 0.00 | 46 | 1009.5 |
| 20260504213459 | 77 | 217 | 3.5 | 7.0 | 0.00 | 0.00 | 0.00 | 47 | 1009.4 |
| 20260504212500 | 78 | 208 | 3.5 | 7.0 | 0.00 | 0.00 | 0.00 | 47 | 1009.5 |
| 20260504211959 | 78 | 214 | 3.5 | 6.1 | 0.00 | 0.00 | 0.00 | 45 | 1009.5 |
| 20260504211500 | 78 | 190 | 3.5 | 6.1 | 0.00 | 0.00 | 0.00 | 43 | 1009.6 |
| 20260504211000 | 78 | 265 | 3.5 | 6.1 | 0.00 | 0.00 | 0.00 | 42 | 1009.6 |
| 20260504210459 | 78 | 220 | 2.6 | 7.0 | 0.00 | 0.00 | 0.00 | 44 | 1009.8 |
| 20260504210002 | 78 | 260 | 3.5 | 7.0 | 0.00 | 0.00 | 0.00 | 46 | 1009.7 |
| 20260504205502 | 78 | 263 | 3.5 | 6.1 | 0.00 | 0.00 | 0.00 | 45 | 1009.6 |
| 20260504204959 | 78 | 237 | 3.5 | 6.1 | 0.00 | 0.00 | 0.00 | 44 | 1009.8 |
| 20260504204500 | 79 | 225 | 2.6 | 5.2 | 0.00 | 0.00 | 0.00 | 44 | 1009.8 |
| 20260504203459 | 79 | 275 | 2.6 | 6.1 | 0.00 | 0.00 | 0.00 | 46 | 1010.0 |
| 20260504202001 | 79 | 272 | 2.6 | 7.8 | 0.00 | 0.00 | 0.00 | 46 | 1010.3 |
| 20260504201459 | 79 | 202 | 2.6 | 7.0 | 0.00 | 0.00 | 0.00 | 48 | 1010.2 |
| 20260504200958 | 79 | 212 | 2.6 | 7.0 | 0.00 | 0.00 | 0.00 | 46 | 1010.3 |
| 20260504200001 | 79 | 275 | 2.6 | 6.1 | 0.00 | 0.00 | 0.00 | 47 | 1010.4 |
| 20260504195458 | 78 | 227 | 3.5 | 5.2 | 0.00 | 0.00 | 0.00 | 46 | 1010.4 |
| 20260504195000 | 78 | 300 | 3.5 | 7.0 | 0.00 | 0.00 | 0.00 | 46 | 1010.7 |
| 20260504194501 | 79 | 226 | 2.6 | 7.0 | 0.00 | 0.00 | 0.00 | 45 | 1010.7 |
| 20260504193959 | 79 | 196 | 2.6 | 6.1 | 0.00 | 0.00 | 0.00 | 46 | 1010.8 |
| 20260504193458 | 79 | 264 | 3.5 | 7.0 | 0.00 | 0.00 | 0.00 | 48 | 1010.8 |
| 20260504192958 | 78 | 292 | 3.5 | 7.0 | 0.00 | 0.00 | 0.00 | 48 | 1011.0 |
| 20260504192459 | 78 | 212 | 3.5 | 8.7 | 0.00 | 0.00 | 0.00 | 45 | 1011.0 |
| 20260504192000 | 78 | 253 | 2.6 | 8.7 | 0.00 | 0.00 | 0.00 | 48 | 1011.1 |
| 20260504191458 | 78 | 198 | 3.5 | 5.2 | 0.00 | 0.00 | 0.00 | 47 | 1011.2 |
| 20260504190459 | 78 | 211 | 3.5 | 7.8 | 0.00 | 0.00 | 0.00 | 46 | 1011.3 |
| 20260504190003 | 78 | 215 | 3.5 | 7.0 | 0.00 | 0.00 | 0.00 | 47 | 1011.2 |
| 20260504185459 | 78 | 261 | 3.5 | 6.1 | 0.00 | 0.00 | 0.00 | 49 | 1011.3 |
| 20260504185000 | 78 | 218 | 3.5 | 7.0 | 0.00 | 0.00 | 0.00 | 46 | 1011.3 |
| 20260504184459 | 78 | 219 | 3.5 | 7.0 | 0.00 | 0.00 | 0.00 | 49 | 1011.3 |
| 20260504183958 | 78 | 239 | 3.5 | 7.0 | 0.00 | 0.00 | 0.00 | 47 | 1011.3 |
| 20260504183500 | 78 | 216 | 3.5 | 7.0 | 0.00 | 0.00 | 0.00 | 47 | 1011.4 |
| 20260504183000 | 78 | 242 | 3.5 | 6.1 | 0.00 | 0.00 | 0.00 | 48 | 1011.4 |
| 20260504182500 | 78 | 211 | 2.6 | 7.8 | 0.00 | 0.00 | 0.00 | 50 | 1011.5 |
| 20260504182000 | 78 | 196 | 2.6 | 7.8 | 0.00 | 0.00 | 0.00 | 52 | 1011.5 |
| 20260504181501 | 78 | 265 | 2.6 | 5.2 | 0.00 | 0.00 | 0.00 | 47 | 1011.6 |
| 20260504181000 | 78 | 211 | 2.6 | 4.3 | 0.00 | 0.00 | 0.00 | 49 | 1011.6 |
| 20260504180001 | 78 | 215 | 2.6 | 6.1 | 0.00 | 0.00 | 0.00 | 49 | 1011.7 |
| 20260504175000 | 77 | 346 | 2.6 | 10.4 | 0.00 | 0.00 | 0.00 | 50 | 1011.7 |
| 20260504174458 | 77 | 277 | 2.6 | 5.2 | 0.00 | 0.00 | 0.00 | 56 | 1011.9 |
| 20260504173958 | 76 | 247 | 3.5 | 7.0 | 0.00 | 0.00 | 0.00 | 53 | 1012.1 |
| 20260504173500 | 77 | 168 | 2.6 | 7.0 | 0.00 | 0.00 | 0.00 | 51 | 1012.1 |
| 20260504173000 | 77 | 219 | 1.7 | 5.2 | 0.00 | 0.00 | 0.00 | 55 | 1012.0 |
| 20260504172458 | 76 | 294 | 2.6 | 5.2 | 0.00 | 0.00 | 0.00 | 53 | 1012.2 |
| 20260504172000 | 76 | 278 | 2.6 | 6.1 | 0.00 | 0.00 | 0.00 | 56 | 1012.2 |
| 20260504171458 | 76 | 281 | 2.6 | 6.1 | 0.00 | 0.00 | 0.00 | 55 | 1012.4 |
| 20260504170958 | 76 | 220 | 2.6 | 6.1 | 0.00 | 0.00 | 0.00 | 56 | 1012.5 |
| 20260504170458 | 76 | 263 | 3.5 | 7.0 | 0.00 | 0.00 | 0.00 | 55 | 1012.6 |
| 20260504140459 | 67 | 259 | 1.7 | 2.6 | 0.00 | 0.00 | 0.00 | 72 | 1013.7 |
| 20260504130458 | 63 | 278 | 0.9 | 3.5 | 0.00 | 0.00 | 0.00 | 78 | 1013.6 |
| 20260504110459 | 57 | 235 | 0.0 | 1.7 | 0.00 | 0.00 | 0.00 | 83 | 1013.0 |
| 20260504100458 | 58 | 236 | 0.0 | 0.0 | 0.00 | 0.00 | 0.00 | 80 | 1013.0 |
| 20260504081958 | 61 | 236 | 0.0 | 1.7 | 0.00 | 0.00 | 0.00 | 72 | 1013.3 |
| 20260504081458 | 61 | 236 | 0.0 | 0.9 | 0.00 | 0.00 | 0.00 | 72 | 1013.4 |
| 20260504080958 | 61 | 236 | 0.0 | 1.7 | 0.00 | 0.00 | 0.00 | 72 | 1013.3 |
| 20260504080458 | 61 | 236 | 0.0 | 0.9 | 0.00 | 0.00 | 0.00 | 72 | 1013.3 |
| 20260504050500 | 57 | 236 | 0.0 | 0.0 | 0.00 | 0.00 | 0.00 | 73 | 1014.8 |
| 20260504050004 | 58 | 236 | 0.0 | 0.0 | 0.00 | 0.00 | 0.00 | 75 | 1014.7 |
| 20260504045501 | 57 | 236 | 0.0 | 0.0 | 0.00 | 0.00 | 0.00 | 73 | 1014.8 |
| 20260504045000 | 57 | 236 | 0.0 | 0.0 | 0.00 | 0.00 | 0.00 | 74 | 1014.8 |
| 20260504044501 | 58 | 236 | 0.0 | 0.0 | 0.00 | 0.00 | 0.00 | 73 | 1014.7 |
| 20260504044000 | 58 | 236 | 0.0 | 0.0 | 0.00 | 0.00 | 0.00 | 73 | 1014.8 |
| 20260504043500 | 57 | 236 | 0.0 | 0.0 | 0.00 | 0.00 | 0.00 | 73 | 1014.8 |
| 20260504043001 | 57 | 236 | 0.0 | 0.0 | 0.00 | 0.00 | 0.00 | 73 | 1014.8 |
| 20260504042500 | 57 | 236 | 0.0 | 0.0 | 0.00 | 0.00 | 0.00 | 73 | 1014.8 |
| 20260504042000 | 58 | 236 | 0.0 | 0.0 | 0.00 | 0.00 | 0.00 | 75 | 1014.9 |
| 20260504041500 | 57 | 236 | 0.0 | 0.0 | 0.00 | 0.00 | 0.00 | 74 | 1014.9 |
| 20260504040959 | 57 | 236 | 0.0 | 0.0 | 0.00 | 0.00 | 0.00 | 74 | 1014.8 |
| 20260504040501 | 57 | 236 | 0.0 | 0.0 | 0.00 | 0.00 | 0.00 | 73 | 1014.9 |
| 20260504040004 | 57 | 236 | 0.0 | 0.0 | 0.00 | 0.00 | 0.00 | 74 | 1014.8 |
| 20260504035501 | 57 | 236 | 0.0 | 1.7 | 0.00 | 0.00 | 0.00 | 74 | 1014.9 |
| 20260504035001 | 57 | 236 | 0.0 | 1.7 | 0.00 | 0.00 | 0.00 | 75 | 1014.9 |
| 20260504034459 | 58 | 236 | 0.0 | 0.9 | 0.00 | 0.00 | 0.00 | 74 | 1014.9 |
| 20260504034001 | 58 | 236 | 0.0 | 0.9 | 0.00 | 0.00 | 0.00 | 75 | 1014.8 |
| 20260504033000 | 58 | 236 | 0.0 | 0.9 | 0.00 | 0.00 | 0.00 | 74 | 1015.1 |
| 20260504032001 | 58 | 236 | 0.0 | 0.9 | 0.00 | 0.00 | 0.00 | 73 | 1015.2 |
| 20260504031500 | 58 | 236 | 0.0 | 0.9 | 0.00 | 0.00 | 0.00 | 73 | 1015.2 |
| 20260504030459 | 58 | 236 | 0.0 | 0.9 | 0.00 | 0.00 | 0.00 | 73 | 1015.3 |
| 20260504030002 | 58 | 236 | 0.0 | 0.0 | 0.00 | 0.00 | 0.00 | 74 | 1015.3 |
| 20260504025459 | 58 | 236 | 0.0 | 0.0 | 0.00 | 0.00 | 0.00 | 73 | 1015.3 |
| 20260504024500 | 59 | 236 | 0.0 | 0.9 | 0.00 | 0.00 | 0.00 | 72 | 1015.3 |
| 20260504024001 | 59 | 236 | 0.0 | 0.9 | 0.00 | 0.00 | 0.00 | 73 | 1015.2 |
| 20260504023501 | 59 | 236 | 0.0 | 0.9 | 0.00 | 0.00 | 0.00 | 73 | 1015.3 |
| 20260504022503 | 59 | 236 | 0.0 | 0.0 | 0.00 | 0.00 | 0.00 | 71 | 1015.3 |
| 20260504022001 | 59 | 236 | 0.0 | 0.9 | 0.00 | 0.00 | 0.00 | 71 | 1015.2 |
| 20260504021501 | 60 | 236 | 0.0 | 0.9 | 0.00 | 0.00 | 0.00 | 70 | 1015.3 |
| 20260504020500 | 60 | 236 | 0.0 | 0.9 | 0.00 | 0.00 | 0.00 | 69 | 1015.2 |
| 20260504020006 | 60 | 236 | 0.0 | 0.9 | 0.00 | 0.00 | 0.00 | 67 | 1015.2 |
| 20260504015501 | 60 | 236 | 0.0 | 0.9 | 0.00 | 0.00 | 0.00 | 69 | 1015.0 |
| 20260504015002 | 61 | 236 | 0.0 | 0.0 | 0.00 | 0.00 | 0.00 | 69 | 1015.0 |
| 20260504014503 | 61 | 236 | 0.0 | 0.9 | 0.00 | 0.00 | 0.00 | 67 | 1015.0 |
| 20260504014004 | 61 | 236 | 0.0 | 0.9 | 0.00 | 0.00 | 0.00 | 66 | 1014.9 |
| 20260504013502 | 62 | 236 | 0.0 | 0.9 | 0.00 | 0.00 | 0.00 | 66 | 1014.9 |
| 20260504013003 | 62 | 236 | 0.0 | 0.9 | 0.00 | 0.00 | 0.00 | 66 | 1014.9 |
| 20260504012502 | 63 | 236 | 0.0 | 0.9 | 0.00 | 0.00 | 0.00 | 63 | 1014.9 |